Regional Weather Roundup
Issued by NWS

Home | Current Version | Previous Version | Graphics & Text | Print | Product List | Glossary Off
Versions: 1 2 3 4 5 6 7 8 9 10 11 12 13 14 15 16 17 18 19 20 21 22 23 24 25 26 27 28 29 30 31 32 33 34 35 36 37 38 39 40 41 42 43 44 45 46 47 48 49 50

888
ASUS43 KDMX 301303
RWRIA

WEATHER ROUNDUP FOR IOWA
NATIONAL WEATHER SERVICE DES MOINES IA
800 AM CDT TUE AUG 30 2016

NOTE: "FAIR" INDICATES FEW OR NO CLOUDS BELOW 12,000 FEET WITH NO
SIGNIFICANT WEATHER AND/OR OBSTRUCTIONS TO VISIBILITY.

* - THESE STATIONS ARE NOT NWS STATIONS...THUS NOT UNDER NWS
QUALITY CONTROL.  THEY ALSO DO NOT REPORT WEATHER SUCH
AS PRECIPITATION OR FOG.

IAZ001>003-012>014-020>022-031>034-043>046-301400-
   NORTHWEST IOWA

CITY           SKY/WX    TMP DP  RH WIND       PRES   REMARKS
CARROLL *      CLOUDY    68  68 100 N7        30.20S
CHEROKEE *     RAIN      68  68 100 S3        30.23R
DENISON *      CLOUDY    68  68 100 N6        30.20R FOG
LE MARS *      MOSUNNY   68  66  94 S3        30.22S
ORANGE CITY *  CLOUDY    70  66  88 SE3       30.22R
SHELDON *      CLOUDY    68  66  94 VRB6      30.21R
SIOUX CITY     LGT RAIN  69  67  93 E8        30.22R FOG
SPENCER        CLOUDY    66  64  93 SW7       30.22R
STORM LAKE *   HVY RAIN  66  64  94 SW3       30.23R VSB 1
$$

IAZ055>058-069>071-079>083-090>094-301400-
   SOUTHWEST IOWA

CITY           SKY/WX    TMP DP  RH WIND       PRES   REMARKS
ATLANTIC *     CLOUDY    68  68 100 NE3       30.19S
AUDUBON *      CLOUDY    68  64  88 NW3       30.21F
CLARINDA *       N/A     70  70 100 MISG      30.21R FOG
COUNCIL BLFS * PTSUNNY   68  68 100 CALM      30.21R FOG
CRESTON *      FOG       70  68  94 E3        30.20S VSB<1/4
HARLAN  *      PTSUNNY   68  68 100 CALM      30.23S FOG
LAMONI         CLOUDY    70  69  97 E5        30.18F
RED OAK *      CLOUDY    70  70 100 CALM      30.20R FOG
SHENANDOAH *   CLOUDY    70 -38   1 CALM      30.21R
$$

IAZ047>049-059>061-072>074-084-301400-
   CENTRAL IOWA

CITY           SKY/WX    TMP DP  RH WIND       PRES   REMARKS
AMES           CLOUDY    69  69 100 NW5       30.19R
ANKENY *         N/A    N/A N/A N/A MISG        N/A
BOONE *        MOSUNNY   70  68  94 N5        30.19S
CHARITON *       N/A     70  70 100 MISG      30.18R FOG
DES MOINES     CLOUDY    72  70  93 NW3       30.17R FOG
GRINNELL*      CLOUDY    68  67  96 CALM      30.18S
KNOXVILLE *    PTSUNNY   70  70 100 SW5       30.16S
MARSHALLTOWN   CLOUDY    68  68 100 NW6       30.17S FOG
NEWTON *       PTSUNNY   70  70 100 CALM      30.16F
PERRY *        CLOUDY    69  69 100 N3        30.19R FOG
$$

IAZ004>006-015-016-023>025-035-036-301400-
   NORTH CENTRAL IOWA

CITY           SKY/WX    TMP DP  RH WIND       PRES   REMARKS
ALGONA *       MOSUNNY   70  68  94 SE10      30.15F
ESTHERVILLE    CLOUDY    65  65 100 W5        30.17S
FORT DODGE *   CLOUDY    70  66  88 SE3       30.20F
MASON CITY     CLOUDY    68  66  93 S7        30.16F
FOREST CITY *    N/A    N/A N/A N/A MISG        N/A
WEBSTER CITY * CLOUDY    70  70 100 N5        30.18S
IOWA FALLS *   LGT RAIN  69  68  94 CALM      30.19F
$$

IAZ007>011-017>019-026>030-037>042-050>054-066-301400-
   NORTHEAST IOWA

CITY           SKY/WX    TMP DP  RH WIND       PRES   REMARKS
CEDAR RAPIDS   CLOUDY    71  71 100 CALM      30.15F FOG
CHARLES CITY * PTSUNNY   68  68 100 CALM      30.15F FOG
CLINTON *      LGT RAIN  70  69  97 SE6       30.16F
DECORAH *      FOG       68  68 100 VRB5      30.13F VSB 1/4
DUBUQUE        CLOUDY    70  68  93 NE6       30.19S FOG
MONTICELLO *   MOSUNNY   70  70 100 CALM      30.17S FOG
OELWEIN *      CLOUDY    68  68 100 CALM      30.17S FOG
WATERLOO       CLOUDY    68  66  93 VRB3      30.15F
$$

IAZ064-065-067-068-078-301400-
   EAST CENTRAL IOWA

CITY           SKY/WX    TMP DP  RH WIND       PRES   REMARKS
DAVENPORT      CLOUDY    70  69  97 NE3       30.17F FOG
IOWA CITY      CLOUDY    72  70  93 CALM      30.17F
MT. PLEASANT * CLOUDY    73  73 100 E3        30.16S
QUAD CITIES    CLOUDY    71  69  93 CALM      30.15F
$$

IAZ062-063-075>077-085>089-095>099-301400-
   SOUTHEAST IOWA

CITY           SKY/WX    TMP DP  RH WIND       PRES   REMARKS
BURLINGTON     CLOUDY    72  71  97 N8        30.16S
FAIRFIELD *    CLOUDY    70  70 100 CALM      30.16S
FORT MADISON * PTSUNNY   72  72 100 NE3       30.17S
KEOKUK *       CLOUDY    72  72 100 NE3       30.16R FOG
OSKALOOSA *    PTSUNNY   68  67  98 CALM      30.17S FOG
CENTERVILLE *    N/A     70  68  94 CALM      30.19R
OTTUMWA        PTSUNNY   69  68  96 W5        30.17R
WASHINGTON *   MOSUNNY   70  70 100 CALM      30.18R FOG
$$

ABBREVIATIONS USED IN REMARKS
   TC - TEMPERATURES IN CELSIUS
  WCI - WIND CHILL INDEX
   HX - HEAT INDEX
  VSB - VISIBILITY
$$





USA.gov is the U.S. government's official web portal to all federal, state and local government web resources and services.